DAL6606 KATL-VABB

Flight info

Callsign DAL6606
Flight time N/A
Altitude 35000
Route PLMMR3 BURGG Q22 FOXWD Q439 BEEKN Q480 ENE Q822 ALLEX N503B ALLRY/M085F370 DCT 51N050W 53N040W 54N030W 55N020W DCT RESNO/N0480F370 DCT NETKI DCT MOLAK/N0475F390 DCT BAMLI DCT BELOX L603 BUKUT DCT LAMSO DCT SONEB L620 PIKIB T620 LALUK DCT LABUK DCT PITOK DCT EBILO DCT LAPKA/N0483F410 DCT DINRO N743 UDROS UM859 KARDE UN644 ROLIN N644 LAGAS M747 SULEL N449 DUKAN B449 RANAH L750 ZB G202 HILAL/N0500F390 G202 RK P628 VIKIT/N0493F410 Z8 AAE/N0487F430 R458 BVR/N0492F410 R458 BOFIN POKON2A
Aircraft A359/H-SDE2E3GHIJ3J4J5LM1ORWXY/LB1D1

Departure

Time N/A
Airport Hartsfield Jackson Atlanta International Airport (KATL)

Arrival

Time 2026-04-28 14:32
Airport Chhatrapati Shivaji Maharaj International Airport (VABB)
Time Latitude Longitude Altitude Speed Heading
2026-04-28 12:04 34.68069 64.61794 41016 ft 553 kts 134°
2026-04-28 12:04 34.63309 64.69150 41005 ft 553 kts 134°
2026-04-28 12:05 34.58583 64.76439 40991 ft 553 kts 134°
2026-04-28 12:05 34.53820 64.83770 40990 ft 553 kts 134°
2026-04-28 12:06 34.49053 64.91095 40976 ft 553 kts 134°
2026-04-28 12:06 34.44273 64.98410 40965 ft 554 kts 134°
2026-04-28 12:07 34.39511 65.05669 40960 ft 554 kts 134°
2026-04-28 12:07 34.34715 65.12972 40928 ft 555 kts 134°
2026-04-28 12:08 34.29905 65.20283 40940 ft 555 kts 134°
2026-04-28 12:08 34.25093 65.27582 40943 ft 556 kts 134°
2026-04-28 12:09 34.20264 65.34891 40938 ft 557 kts 134°
2026-04-28 12:09 34.15461 65.42151 40914 ft 557 kts 134°
2026-04-28 12:10 34.10611 65.49462 40924 ft 558 kts 134°
2026-04-28 12:10 34.05767 65.56755 40909 ft 557 kts 135°
2026-04-28 12:11 34.00918 65.64053 40888 ft 558 kts 135°
2026-04-28 12:11 33.96088 65.71318 40889 ft 559 kts 134°
2026-04-28 12:12 33.91218 65.78621 40869 ft 559 kts 134°
2026-04-28 12:12 33.86343 65.85912 40870 ft 559 kts 134°
2026-04-28 12:13 33.81470 65.93195 40881 ft 559 kts 134°
2026-04-28 12:13 33.76621 66.00423 40856 ft 560 kts 134°
2026-04-28 12:14 33.71734 66.07721 40853 ft 561 kts 134°
2026-04-28 12:14 33.66829 66.14994 40831 ft 561 kts 135°
2026-04-28 12:15 33.61916 66.22252 40794 ft 560 kts 135°
2026-04-28 12:15 33.57036 66.29460 40807 ft 560 kts 134°
2026-04-28 12:16 33.52119 66.36723 40803 ft 561 kts 134°
2026-04-28 12:16 33.47196 66.43975 40804 ft 561 kts 134°
2026-04-28 12:17 33.42269 66.51229 40808 ft 561 kts 134°
2026-04-28 12:17 33.37331 66.58465 40835 ft 560 kts 134°
2026-04-28 12:18 33.32413 66.65633 40859 ft 561 kts 135°
2026-04-28 12:18 33.27434 66.72819 40859 ft 562 kts 134°
2026-04-28 12:19 33.22459 66.80024 40865 ft 562 kts 135°
2026-04-28 12:19 33.17480 66.87248 40881 ft 563 kts 134°
2026-04-28 12:20 33.12539 66.94403 40877 ft 562 kts 134°
2026-04-28 12:20 33.07562 67.01586 40874 ft 562 kts 134°
2026-04-28 12:21 33.02569 67.08775 40845 ft 563 kts 134°
2026-04-28 12:21 32.97563 67.15949 40847 ft 563 kts 134°
2026-04-28 12:22 32.92592 67.23081 40817 ft 563 kts 134°
2026-04-28 12:22 32.87587 67.30253 40781 ft 563 kts 134°
2026-04-28 12:23 32.82582 67.37417 40784 ft 563 kts 134°
2026-04-28 12:23 32.77562 67.44578 40759 ft 563 kts 134°
2026-04-28 12:24 32.72476 67.51614 40745 ft 561 kts 136°
2026-04-28 12:24 32.67307 67.58467 40744 ft 560 kts 136°
2026-04-28 12:25 32.62105 67.65363 40733 ft 561 kts 136°
2026-04-28 12:25 32.56919 67.72287 40733 ft 561 kts 136°
2026-04-28 12:26 32.51745 67.79209 40729 ft 561 kts 136°
2026-04-28 12:26 32.46651 67.86146 40736 ft 563 kts 134°
2026-04-28 12:27 32.41697 67.93329 40750 ft 563 kts 133°
2026-04-28 12:27 32.36758 68.00526 40744 ft 563 kts 133°
2026-04-28 12:28 32.31791 68.07680 40757 ft 563 kts 134°
2026-04-28 12:28 32.26834 68.14763 40756 ft 563 kts 134°
2026-04-28 12:29 32.19338 68.25441 40766 ft 563 kts 134°
2026-04-28 12:30 32.14333 68.32553 40773 ft 563 kts 134°
2026-04-28 12:30 32.09326 68.39658 40770 ft 563 kts 134°
2026-04-28 12:31 32.04352 68.46705 40768 ft 563 kts 134°
2026-04-28 12:31 31.99344 68.53791 40772 ft 563 kts 133°
2026-04-28 12:32 31.94326 68.60869 40752 ft 563 kts 133°
2026-04-28 12:32 31.89302 68.67941 40752 ft 563 kts 134°
2026-04-28 12:33 31.84313 68.74952 40731 ft 563 kts 134°
2026-04-28 12:33 31.79284 68.82016 40743 ft 563 kts 134°
2026-04-28 12:34 31.74250 68.89066 40733 ft 563 kts 133°
2026-04-28 12:34 31.69216 68.96103 40730 ft 562 kts 133°
2026-04-28 12:35 31.64211 69.03150 40689 ft 562 kts 132°
2026-04-28 12:35 31.59391 69.10326 40711 ft 563 kts 131°
2026-04-28 12:36 31.54580 69.17585 40701 ft 563 kts 131°
2026-04-28 12:36 31.49744 69.24797 40708 ft 562 kts 131°
2026-04-28 12:37 31.44885 69.31967 40687 ft 562 kts 131°
2026-04-28 12:37 31.40000 69.39107 40698 ft 562 kts 134°
2026-04-28 12:38 31.34131 69.44926 40697 ft 548 kts 156°
2026-04-28 12:38 31.30760 69.46770 40695 ft 538 kts 168°
2026-04-28 12:38 31.27184 69.47974 40687 ft 534 kts 173°
2026-04-28 12:39 31.19919 69.49846 40665 ft 535 kts 176°
2026-04-28 12:39 31.12612 69.51565 40696 ft 536 kts 176°
2026-04-28 12:40 31.05307 69.53326 40700 ft 536 kts 175°
2026-04-28 12:40 30.98057 69.55116 40695 ft 536 kts 175°
2026-04-28 12:41 30.90772 69.56926 40694 ft 536 kts 175°
2026-04-28 12:41 30.83484 69.58734 40688 ft 535 kts 175°
2026-04-28 12:42 30.76194 69.60537 40683 ft 535 kts 175°
2026-04-28 12:42 30.68914 69.62332 40659 ft 535 kts 175°
2026-04-28 12:43 30.61669 69.64119 40676 ft 536 kts 175°
2026-04-28 12:43 30.54365 69.65916 40672 ft 537 kts 175°
2026-04-28 12:44 30.47054 69.67713 40671 ft 537 kts 175°
2026-04-28 12:44 30.39749 69.69505 40672 ft 537 kts 175°
2026-04-28 12:45 30.32486 69.71284 40676 ft 537 kts 175°
2026-04-28 12:45 30.25173 69.73073 40675 ft 537 kts 175°
2026-04-28 12:46 30.17872 69.75051 40655 ft 540 kts 172°
2026-04-28 12:46 30.10602 69.77242 40681 ft 540 kts 172°
2026-04-28 12:47 30.03380 69.79404 40682 ft 540 kts 173°
2026-04-28 12:47 29.96104 69.81536 40673 ft 539 kts 173°
2026-04-28 12:48 29.88823 69.83648 40653 ft 539 kts 172°
2026-04-28 12:48 29.81546 69.85754 40665 ft 539 kts 173°
2026-04-28 12:49 29.74267 69.87860 40660 ft 540 kts 173°
2026-04-28 12:49 29.67024 69.89951 40650 ft 540 kts 173°
2026-04-28 12:50 29.59735 69.92054 40642 ft 540 kts 173°
2026-04-28 12:50 29.52437 69.94157 40635 ft 540 kts 173°
2026-04-28 12:51 29.45141 69.96254 40634 ft 541 kts 173°
2026-04-28 12:51 29.37850 69.98347 40634 ft 540 kts 173°
2026-04-28 12:52 29.30600 70.00428 40617 ft 540 kts 173°
2026-04-28 12:52 29.23309 70.02516 40626 ft 540 kts 173°
2026-04-28 12:53 29.16016 70.04601 40620 ft 540 kts 173°
2026-04-28 12:53 29.08726 70.06683 40614 ft 539 kts 173°
2026-04-28 12:54 29.01493 70.08745 40616 ft 539 kts 173°
2026-04-28 12:54 28.94217 70.10817 40614 ft 539 kts 173°
2026-04-28 12:55 28.86941 70.12885 40599 ft 539 kts 173°
2026-04-28 12:55 28.79661 70.14951 40618 ft 539 kts 173°
2026-04-28 12:56 28.72383 70.17015 40618 ft 539 kts 173°
2026-04-28 12:56 28.65153 70.19061 40618 ft 539 kts 173°
2026-04-28 12:57 28.57874 70.21118 40622 ft 539 kts 172°
2026-04-28 12:57 28.50608 70.23169 40623 ft 538 kts 172°
2026-04-28 12:58 28.43381 70.25512 40618 ft 545 kts 163°
2026-04-28 12:58 28.39970 70.27458 40619 ft 552 kts 152°
2026-04-28 12:58 28.36927 70.30041 40623 ft 557 kts 140°
2026-04-28 12:58 28.34313 70.33289 40620 ft 559 kts 128°
2026-04-28 12:59 28.32264 70.37030 40637 ft 558 kts 119°
2026-04-28 12:59 28.28806 70.44885 40627 ft 556 kts 116°
2026-04-28 13:00 28.25522 70.52812 40629 ft 555 kts 115°
2026-04-28 13:00 28.22227 70.60668 40631 ft 556 kts 116°
2026-04-28 13:01 28.18859 70.68565 40635 ft 556 kts 116°
2026-04-28 13:01 28.15473 70.76445 40636 ft 556 kts 116°
2026-04-28 13:02 28.12085 70.84314 40636 ft 555 kts 116°
2026-04-28 13:02 28.08720 70.92120 40643 ft 554 kts 116°
2026-04-28 13:03 28.05333 70.99963 40643 ft 554 kts 116°
2026-04-28 13:03 28.01945 71.07798 40645 ft 554 kts 116°
2026-04-28 13:04 27.98552 71.15626 40644 ft 554 kts 116°
2026-04-28 13:04 27.95153 71.23453 40645 ft 554 kts 116°
2026-04-28 13:05 27.91774 71.31217 40642 ft 554 kts 116°
2026-04-28 13:05 27.88368 71.39031 40645 ft 554 kts 116°
2026-04-28 13:06 27.84927 71.46824 40644 ft 554 kts 118°
2026-04-28 13:06 27.81309 71.54512 40644 ft 554 kts 118°
2026-04-28 13:07 27.77679 71.62130 40645 ft 555 kts 118°
2026-04-28 13:07 27.74038 71.69829 40645 ft 556 kts 118°
2026-04-28 13:08 27.70412 71.77527 40647 ft 556 kts 118°
2026-04-28 13:08 27.65892 71.84535 40653 ft 551 kts 139°
2026-04-28 13:08 27.62938 71.87253 40652 ft 547 kts 151°
2026-04-28 13:09 27.59662 71.89254 40650 ft 541 kts 163°
2026-04-28 13:09 27.56106 71.90526 40650 ft 533 kts 175°
2026-04-28 13:09 27.52460 71.91177 40658 ft 530 kts 180°
2026-04-28 13:10 27.45095 71.92032 40636 ft 534 kts 182°
2026-04-28 13:10 27.37684 71.92785 40650 ft 535 kts 181°
2026-04-28 13:11 27.30278 71.93593 40650 ft 535 kts 181°
2026-04-28 13:11 27.22923 71.94433 40653 ft 535 kts 181°
2026-04-28 13:12 27.15517 71.95290 40652 ft 535 kts 181°
2026-04-28 13:12 27.08110 71.96144 40656 ft 535 kts 181°
2026-04-28 13:13 27.00709 71.96994 40656 ft 535 kts 181°
2026-04-28 13:13 26.93353 71.97837 40656 ft 535 kts 181°
2026-04-28 13:14 26.85947 71.98685 40652 ft 535 kts 181°
2026-04-28 13:14 26.78521 71.99533 40655 ft 536 kts 181°
2026-04-28 13:15 26.71100 72.00381 40657 ft 536 kts 181°
2026-04-28 13:15 26.63724 72.01222 40659 ft 537 kts 181°
2026-04-28 13:16 26.56295 72.02068 40653 ft 536 kts 181°
2026-04-28 13:16 26.48876 72.02912 40649 ft 535 kts 181°
2026-04-28 13:17 26.41463 72.03754 40640 ft 535 kts 181°
2026-04-28 13:17 26.34104 72.04589 40638 ft 536 kts 181°
2026-04-28 13:18 26.26688 72.05429 40626 ft 535 kts 181°
2026-04-28 13:18 26.19276 72.06267 40624 ft 535 kts 181°
2026-04-28 13:19 26.11870 72.07104 40626 ft 535 kts 181°
2026-04-28 13:19 26.04459 72.07940 40615 ft 535 kts 181°
2026-04-28 13:20 25.97110 72.08769 40609 ft 533 kts 180°
2026-04-28 13:20 25.89735 72.09600 40612 ft 532 kts 180°
2026-04-28 13:21 25.82375 72.10427 40616 ft 532 kts 180°
2026-04-28 13:21 25.75014 72.11253 40616 ft 532 kts 180°
2026-04-28 13:22 25.67705 72.12073 40630 ft 531 kts 180°
2026-04-28 13:22 25.60361 72.12911 40639 ft 530 kts 180°
2026-04-28 13:23 25.53029 72.13753 40625 ft 530 kts 180°
2026-04-28 13:23 25.45693 72.14594 40646 ft 530 kts 180°
2026-04-28 13:24 25.38414 72.15426 40642 ft 529 kts 180°
2026-04-28 13:24 25.31097 72.16261 40645 ft 528 kts 180°
2026-04-28 13:25 25.23787 72.17093 40653 ft 528 kts 180°
2026-04-28 13:25 25.16476 72.17925 40655 ft 528 kts 180°
2026-04-28 13:26 25.09210 72.18750 40663 ft 528 kts 180°
2026-04-28 13:26 25.01894 72.19584 40669 ft 529 kts 180°
2026-04-28 13:27 24.94604 72.20975 40669 ft 533 kts 174°
2026-04-28 13:27 24.87336 72.22574 40675 ft 532 kts 174°
2026-04-28 13:28 24.80123 72.24192 40677 ft 532 kts 174°
2026-04-28 13:28 24.72863 72.25825 40693 ft 532 kts 174°
2026-04-28 13:29 24.65612 72.27446 40687 ft 532 kts 174°
2026-04-28 13:29 24.58364 72.29061 40686 ft 531 kts 174°
2026-04-28 13:30 24.51156 72.30664 40678 ft 532 kts 174°
2026-04-28 13:30 24.43902 72.32278 40674 ft 532 kts 174°
2026-04-28 13:31 24.33016 72.34697 40673 ft 532 kts 174°
2026-04-28 13:31 24.25763 72.36306 40672 ft 532 kts 174°
2026-04-28 13:32 24.18557 72.37903 40669 ft 532 kts 174°
2026-04-28 13:32 24.11301 72.39509 40682 ft 532 kts 174°
2026-04-28 13:33 24.04043 72.41113 40681 ft 532 kts 174°
2026-04-28 13:33 23.96789 72.42727 40666 ft 532 kts 174°
2026-04-28 13:34 23.89577 72.44338 40668 ft 532 kts 174°
2026-04-28 13:34 23.82324 72.45956 40667 ft 532 kts 174°
2026-04-28 13:35 23.75065 72.47573 40665 ft 532 kts 174°
2026-04-28 13:35 23.67797 72.49189 40649 ft 533 kts 173°
2026-04-28 13:36 23.60583 72.50792 40657 ft 533 kts 173°
2026-04-28 13:36 23.53317 72.52405 40652 ft 533 kts 173°
2026-04-28 13:37 23.46047 72.54016 40657 ft 533 kts 173°
2026-04-28 13:37 23.38779 72.55626 40655 ft 533 kts 173°
2026-04-28 13:38 23.31504 72.57235 40654 ft 533 kts 173°
2026-04-28 13:38 23.24280 72.58831 40648 ft 533 kts 173°
2026-04-28 13:39 23.17004 72.60437 40673 ft 533 kts 173°
2026-04-28 13:39 23.09718 72.61818 40671 ft 527 kts 181°
2026-04-28 13:40 23.02559 72.61168 40666 ft 511 kts 201°
2026-04-28 13:40 22.95717 72.59055 40660 ft 512 kts 204°
2026-04-28 13:41 22.88969 72.56727 40659 ft 513 kts 205°
2026-04-28 13:41 22.82159 72.54385 40656 ft 513 kts 204°
2026-04-28 13:42 22.75337 72.52082 40652 ft 514 kts 204°
2026-04-28 13:42 22.68502 72.49795 40663 ft 514 kts 204°
2026-04-28 13:43 22.61707 72.47527 40665 ft 514 kts 204°
2026-04-28 13:43 22.54866 72.45243 40667 ft 514 kts 204°
2026-04-28 13:44 22.48029 72.42963 40672 ft 514 kts 204°
2026-04-28 13:44 22.41189 72.40682 40671 ft 515 kts 203°
2026-04-28 13:45 22.34390 72.38418 40675 ft 514 kts 203°
2026-04-28 13:45 22.27548 72.36143 40675 ft 515 kts 203°
2026-04-28 13:46 22.20708 72.33871 40675 ft 514 kts 203°
2026-04-28 13:46 22.13864 72.31599 40675 ft 514 kts 203°
2026-04-28 13:47 22.07022 72.29330 40680 ft 514 kts 203°
2026-04-28 13:47 22.00238 72.27084 40680 ft 513 kts 203°
2026-04-28 13:48 21.93410 72.24824 40684 ft 514 kts 203°
2026-04-28 13:48 21.86566 72.22561 40686 ft 515 kts 203°
2026-04-28 13:49 21.79694 72.20366 40689 ft 518 kts 198°
2026-04-28 13:49 21.72508 72.19744 40704 ft 528 kts 179°
2026-04-28 13:50 21.65277 72.21196 40708 ft 529 kts 170°
2026-04-28 13:50 21.58134 72.23089 40718 ft 529 kts 169°
2026-04-28 13:51 21.51004 72.25019 40716 ft 528 kts 169°
2026-04-28 13:51 21.43873 72.26906 40723 ft 527 kts 169°
2026-04-28 13:52 21.36754 72.28763 40724 ft 526 kts 170°
2026-04-28 13:52 21.29694 72.30597 40730 ft 526 kts 170°
2026-04-28 13:53 21.22583 72.32443 40738 ft 526 kts 170°
2026-04-28 13:53 21.15473 72.34288 40738 ft 526 kts 170°
2026-04-28 13:54 21.08368 72.36131 40747 ft 526 kts 170°
2026-04-28 13:54 21.01308 72.37961 40747 ft 526 kts 170°
2026-04-28 13:55 20.94195 72.39802 40749 ft 526 kts 170°
2026-04-28 13:55 20.87091 72.41667 40746 ft 526 kts 169°
2026-04-28 13:56 20.79993 72.43516 40756 ft 524 kts 169°
2026-04-28 13:56 20.72921 72.45074 40768 ft 519 kts 181°
2026-04-28 13:57 20.69367 72.44824 40727 ft 507 kts 197°
2026-04-28 13:57 20.66028 72.43769 40060 ft 497 kts 206°
2026-04-28 13:57 20.62794 72.42447 38955 ft 502 kts 207°
2026-04-28 13:57 20.59545 72.41071 38210 ft 504 kts 207°
2026-04-28 13:58 20.56283 72.39706 37487 ft 502 kts 207°
2026-04-28 13:58 20.53036 72.38362 36800 ft 500 kts 207°
2026-04-28 13:58 20.49796 72.37030 36136 ft 498 kts 207°
2026-04-28 13:58 20.46572 72.35709 35466 ft 496 kts 207°
2026-04-28 13:59 20.43397 72.34410 34765 ft 495 kts 207°
2026-04-28 13:59 20.40181 72.33097 33985 ft 495 kts 207°
2026-04-28 13:59 20.36962 72.31784 33107 ft 496 kts 207°
2026-04-28 13:59 20.33740 72.30472 32247 ft 496 kts 206°
2026-04-28 14:00 20.30519 72.29164 31392 ft 496 kts 206°
2026-04-28 14:00 20.27290 72.27853 30508 ft 497 kts 206°
2026-04-28 14:00 20.24058 72.26542 29529 ft 499 kts 205°
2026-04-28 14:00 20.20824 72.25234 28707 ft 495 kts 205°
2026-04-28 14:01 20.17656 72.23954 28036 ft 489 kts 205°
2026-04-28 14:01 20.14496 72.22677 27356 ft 484 kts 205°
2026-04-28 14:01 20.11369 72.21411 26697 ft 478 kts 205°
2026-04-28 14:01 20.08278 72.20160 26037 ft 473 kts 205°
2026-04-28 14:02 20.05214 72.18919 25409 ft 468 kts 205°
2026-04-28 14:02 20.02216 72.17709 25259 ft 452 kts 205°
2026-04-28 14:02 19.99336 72.16544 25149 ft 435 kts 205°
2026-04-28 14:02 19.96560 72.15420 24988 ft 420 kts 205°
2026-04-28 14:03 19.93871 72.14329 24804 ft 407 kts 205°
2026-04-28 14:03 19.91264 72.13274 24624 ft 394 kts 205°
2026-04-28 14:03 19.88740 72.12255 24444 ft 383 kts 205°
2026-04-28 14:03 19.86285 72.11266 24275 ft 371 kts 205°
2026-04-28 14:04 19.83943 72.10323 24113 ft 360 kts 205°
2026-04-28 14:04 19.81624 72.09393 23834 ft 354 kts 205°
2026-04-28 14:04 19.79226 72.08755 23397 ft 358 kts 189°
2026-04-28 14:04 19.76742 72.08984 22937 ft 362 kts 167°
2026-04-28 14:05 19.74498 72.10166 22546 ft 362 kts 146°
2026-04-28 14:05 19.72571 72.11872 22139 ft 360 kts 141°
2026-04-28 14:05 19.70726 72.13650 21760 ft 357 kts 140°
2026-04-28 14:05 19.68891 72.15421 21388 ft 355 kts 140°
2026-04-28 14:06 19.67092 72.17147 21022 ft 352 kts 140°
2026-04-28 14:06 19.65276 72.18882 20639 ft 350 kts 140°
2026-04-28 14:06 19.63469 72.20604 20272 ft 348 kts 140°
2026-04-28 14:06 19.61672 72.22313 19893 ft 346 kts 140°
2026-04-28 14:07 19.59879 72.24015 19522 ft 345 kts 140°
2026-04-28 14:07 19.58094 72.25709 19156 ft 343 kts 140°
2026-04-28 14:07 19.56321 72.27390 18774 ft 342 kts 139°
2026-04-28 14:07 19.54548 72.29070 18403 ft 341 kts 139°
2026-04-28 14:08 19.52784 72.30742 18049 ft 340 kts 139°
2026-04-28 14:08 19.51052 72.32384 17642 ft 338 kts 139°
2026-04-28 14:08 19.49306 72.34040 17272 ft 335 kts 139°
2026-04-28 14:08 19.48143 72.35143 17133 ft 329 kts 139°
2026-04-28 14:09 19.45908 72.37261 16779 ft 322 kts 140°
2026-04-28 14:09 19.44242 72.38840 16434 ft 320 kts 140°
2026-04-28 14:09 19.42587 72.40408 16082 ft 319 kts 140°
2026-04-28 14:09 19.40932 72.41974 15721 ft 318 kts 140°
2026-04-28 14:10 19.39282 72.43533 15375 ft 317 kts 141°
2026-04-28 14:10 19.37665 72.45061 15038 ft 315 kts 141°
2026-04-28 14:10 19.36032 72.46604 14688 ft 314 kts 141°
2026-04-28 14:10 19.34407 72.48140 14341 ft 312 kts 142°
2026-04-28 14:11 19.32789 72.49667 14002 ft 311 kts 141°
2026-04-28 14:11 19.31180 72.51187 13648 ft 310 kts 142°
2026-04-28 14:11 19.29572 72.52704 13277 ft 309 kts 142°
2026-04-28 14:11 19.27986 72.54201 13058 ft 300 kts 142°
2026-04-28 14:12 19.26468 72.55637 12933 ft 287 kts 142°
2026-04-28 14:12 19.24993 72.57033 12668 ft 283 kts 141°
2026-04-28 14:12 19.23532 72.58413 12372 ft 280 kts 142°
2026-04-28 14:12 19.22209 72.59915 12053 ft 280 kts 127°
2026-04-28 14:13 19.21541 72.61822 11902 ft 281 kts 99°
2026-04-28 14:13 19.21432 72.63929 11874 ft 290 kts 93°
2026-04-28 14:13 19.21427 72.66043 11849 ft 292 kts 92°
2026-04-28 14:13 19.21430 72.68217 11820 ft 292 kts 92°
2026-04-28 14:14 19.21427 72.70334 11783 ft 292 kts 92°
2026-04-28 14:14 19.21420 72.72476 11742 ft 291 kts 92°
2026-04-28 14:14 19.21409 72.74619 11696 ft 291 kts 92°
2026-04-28 14:14 19.21398 72.76757 11661 ft 291 kts 92°
2026-04-28 14:15 19.21385 72.78898 11617 ft 291 kts 92°
2026-04-28 14:15 19.21372 72.81037 11573 ft 290 kts 92°
2026-04-28 14:15 19.21358 72.83169 11545 ft 290 kts 92°
2026-04-28 14:15 19.21353 72.84015 11528 ft 290 kts 93°
2026-04-28 14:16 19.21339 72.86024 11491 ft 290 kts 93°
2026-04-28 14:16 19.21325 72.88156 11499 ft 290 kts 93°
2026-04-28 14:16 19.21310 72.90277 11460 ft 290 kts 93°
2026-04-28 14:16 19.21296 72.92379 11416 ft 290 kts 93°
2026-04-28 14:17 19.21280 72.94512 11385 ft 290 kts 93°
2026-04-28 14:17 19.21264 72.96639 11339 ft 290 kts 92°
2026-04-28 14:17 19.21249 72.98769 11306 ft 290 kts 92°
2026-04-28 14:17 19.21233 73.00905 11259 ft 290 kts 92°
2026-04-28 14:18 19.21217 73.03034 11215 ft 289 kts 92°
2026-04-28 14:18 19.21200 73.05158 11178 ft 289 kts 92°
2026-04-28 14:18 19.21184 73.07282 11139 ft 289 kts 92°
2026-04-28 14:18 19.21167 73.09414 11094 ft 289 kts 92°
2026-04-28 14:19 19.21155 73.10819 11074 ft 289 kts 92°
2026-04-28 14:19 19.21138 73.12943 11030 ft 288 kts 92°
2026-04-28 14:19 19.21119 73.15758 10907 ft 289 kts 92°
2026-04-28 14:19 19.21140 73.17878 10564 ft 288 kts 91°
2026-04-28 14:20 19.21171 73.19989 10037 ft 288 kts 91°
2026-04-28 14:20 19.21200 73.22094 9488 ft 283 kts 92°
2026-04-28 14:20 19.21226 73.24174 9012 ft 284 kts 91°
2026-04-28 14:20 19.21213 73.25552 8767 ft 282 kts 95°
2026-04-28 14:21 19.20623 73.27479 8478 ft 273 kts 128°
2026-04-28 14:21 19.19188 73.28662 8288 ft 258 kts 162°
2026-04-28 14:21 19.17468 73.29053 7960 ft 251 kts 178°
2026-04-28 14:21 19.15169 73.29225 7528 ft 249 kts 180°
2026-04-28 14:22 19.13442 73.29324 7200 ft 248 kts 181°
2026-04-28 14:22 19.11727 73.29272 6880 ft 245 kts 191°
2026-04-28 14:22 19.10676 73.28896 6668 ft 239 kts 217°
2026-04-28 14:22 19.09686 73.27579 6356 ft 228 kts 257°
2026-04-28 14:23 19.09451 73.25942 6079 ft 226 kts 271°
2026-04-28 14:23 19.09408 73.24270 6026 ft 229 kts 274°
2026-04-28 14:23 19.09389 73.22583 5999 ft 230 kts 273°
2026-04-28 14:23 19.09351 73.20365 5813 ft 222 kts 273°
2026-04-28 14:24 19.09325 73.18756 5598 ft 216 kts 274°
2026-04-28 14:24 19.09310 73.17717 5428 ft 211 kts 274°
2026-04-28 14:24 19.09288 73.16192 5117 ft 205 kts 274°
2026-04-28 14:24 19.09266 73.14707 4796 ft 198 kts 275°
2026-04-28 14:25 19.09246 73.13304 4518 ft 184 kts 275°
2026-04-28 14:25 19.09227 73.11994 4287 ft 172 kts 275°
2026-04-28 14:25 19.09209 73.10767 4051 ft 162 kts 275°
2026-04-28 14:25 19.09187 73.09265 3791 ft 147 kts 275°
2026-04-28 14:26 19.09177 73.08556 3674 ft 139 kts 275°
2026-04-28 14:26 19.09163 73.07556 3515 ft 135 kts 275°
2026-04-28 14:26 19.09151 73.06579 3351 ft 135 kts 275°
2026-04-28 14:26 19.09138 73.05589 3194 ft 135 kts 275°
2026-04-28 14:27 19.09125 73.04604 3033 ft 134 kts 274°
2026-04-28 14:27 19.09113 73.03603 2852 ft 136 kts 274°
2026-04-28 14:27 19.09099 73.02613 2676 ft 134 kts 274°
2026-04-28 14:27 19.09084 73.01631 2510 ft 133 kts 273°
2026-04-28 14:28 19.09069 73.00663 2337 ft 131 kts 274°
2026-04-28 14:28 19.09056 72.99706 2181 ft 130 kts 273°
2026-04-28 14:28 19.09044 72.98757 2023 ft 129 kts 272°
2026-04-28 14:28 19.09031 72.97824 1858 ft 128 kts 273°
2026-04-28 14:29 19.09017 72.96889 1698 ft 127 kts 272°
2026-04-28 14:29 19.09006 72.95957 1537 ft 127 kts 271°
2026-04-28 14:29 19.08991 72.95034 1368 ft 125 kts 271°
2026-04-28 14:29 19.08978 72.94115 1209 ft 126 kts 272°
2026-04-28 14:30 19.08965 72.93191 1050 ft 125 kts 271°
2026-04-28 14:30 19.08951 72.92282 900 ft 123 kts 272°
2026-04-28 14:30 19.08939 72.91378 755 ft 123 kts 271°
2026-04-28 14:30 19.08926 72.90489 623 ft 123 kts 271°
2026-04-28 14:31 19.08913 72.89581 434 ft 124 kts 272°
2026-04-28 14:31 19.08901 72.88670 276 ft 124 kts 270°
2026-04-28 14:31 19.08888 72.87761 116 ft 123 kts 271°
2026-04-28 14:31 19.08872 72.86893 53 ft 108 kts 269°
2026-04-28 14:32 19.08863 72.86209 54 ft 79 kts 269°
2026-04-28 14:32 19.08856 72.85711 55 ft 57 kts 269°
2026-04-28 14:32 19.08873 72.85411 50 ft 36 kts 285°
2026-04-28 14:32 19.08942 72.85261 50 ft 0 kts 315°
2026-04-28 14:33 19.08960 72.85242 52 ft 8 kts 315°
2026-04-28 14:33 19.08963 72.85240 51 ft 0 kts 323°
2026-04-28 14:34 19.08971 72.85235 49 ft 9 kts 330°
2026-04-28 14:34 19.09010 72.85244 49 ft 8 kts 54°
2026-04-28 14:35 19.09022 72.85339 51 ft 8 kts 89°
2026-04-28 14:35 19.09023 72.85408 51 ft 12 kts 89°
2026-04-28 14:35 19.09023 72.85417 51 ft 0 kts 89°
2026-04-28 14:38 19.09025 72.85504 50 ft 20 kts 89°
2026-04-28 14:39 19.09028 72.85671 55 ft 22 kts 90°
2026-04-28 14:39 19.09030 72.85830 55 ft 23 kts 89°
2026-04-28 14:39 19.09033 72.86016 55 ft 27 kts 89°
2026-04-28 14:39 19.09035 72.86163 55 ft 16 kts 89°
2026-04-28 14:40 19.09038 72.86291 55 ft 18 kts 81°
2026-04-28 14:40 19.09082 72.86364 48 ft 19 kts 45°
2026-04-28 14:40 19.09213 72.86520 50 ft 23 kts 48°
2026-04-28 14:40 19.09298 72.86622 48 ft 18 kts 49°
2026-04-28 14:41 19.09391 72.86733 49 ft 20 kts 49°
2026-04-28 14:41 19.09426 72.86799 51 ft 11 kts 85°
2026-04-28 14:41 19.09379 72.86864 50 ft 13 kts 139°
2026-04-28 14:41 19.09322 72.86922 52 ft 4 kts 136°
2026-04-28 14:42 19.09299 72.86955 48 ft 5 kts 99°
2026-04-28 14:42 19.09316 72.86989 48 ft 7 kts 60°
2026-04-28 14:42 19.09334 72.87023 50 ft 5 kts 60°
2026-04-28 14:42 19.09337 72.87029 50 ft 0 kts 60°